NOZ314 ENGM-ENKR

Flight info

Callsign NOZ314
Flight time 2h 2m
Altitude 35000
Route RIBBE DCT EGAGO DCT ETSON DCT SOVEV DCT TUVLU DCT ABLOP DCT SIVNU
Aircraft B738/M-SDE2E3FGHIRWXY/LB1

Departure

Time 2026-04-15 08:17
Airport Oslo-Gardermoen International Airport (ENGM)

Arrival

Time 2026-04-15 10:20
Airport Kirkenes Airport, Høybuktmoen (ENKR)
Time Latitude Longitude Altitude Speed Heading
2026-04-15 08:17 60.34456 11.09015 6272 ft 276 kts
2026-04-15 08:17 60.36291 11.10043 7027 ft 275 kts 26°
2026-04-15 08:17 60.38053 11.11566 7806 ft 277 kts 26°
2026-04-15 08:17 60.39837 11.13145 8594 ft 281 kts 27°
2026-04-15 08:18 60.41637 11.14740 9407 ft 283 kts 27°
2026-04-15 08:18 60.43456 11.16347 10205 ft 287 kts 27°
2026-04-15 08:18 60.45307 11.17979 10767 ft 298 kts 26°
2026-04-15 08:18 60.47296 11.19734 10941 ft 324 kts 26°
2026-04-15 08:19 60.49433 11.21616 11130 ft 346 kts 26°
2026-04-15 08:19 60.51673 11.23582 11539 ft 359 kts 25°
2026-04-15 08:19 60.54002 11.25621 12213 ft 363 kts 25°
2026-04-15 08:19 60.56325 11.27656 12978 ft 365 kts 24°
2026-04-15 08:20 60.58643 11.29691 13700 ft 369 kts 24°
2026-04-15 08:20 60.61030 11.31790 14419 ft 371 kts 24°
2026-04-15 08:20 60.63396 11.33804 15092 ft 373 kts 19°
2026-04-15 08:20 60.65936 11.34982 15786 ft 375 kts
2026-04-15 08:21 60.68539 11.35492 16431 ft 378 kts
2026-04-15 08:21 60.71172 11.35925 16991 ft 383 kts
2026-04-15 08:21 60.73843 11.36354 17702 ft 384 kts
2026-04-15 08:21 60.76514 11.36797 18308 ft 387 kts
2026-04-15 08:22 60.79212 11.37264 18854 ft 391 kts
2026-04-15 08:22 60.81931 11.37752 19363 ft 394 kts
2026-04-15 08:22 60.84676 11.38256 19879 ft 397 kts
2026-04-15 08:22 60.87430 11.38769 20391 ft 400 kts
2026-04-15 08:23 60.90221 11.39292 20894 ft 403 kts
2026-04-15 08:23 60.93023 11.39820 21383 ft 406 kts
2026-04-15 08:23 60.95850 11.40353 21874 ft 409 kts
2026-04-15 08:23 60.98690 11.40890 22353 ft 413 kts
2026-04-15 08:24 61.01571 11.41435 22822 ft 416 kts
2026-04-15 08:24 61.04426 11.41976 23273 ft 419 kts
2026-04-15 08:24 61.07319 11.42525 23714 ft 422 kts
2026-04-15 08:24 61.10266 11.43085 24110 ft 425 kts
2026-04-15 08:25 61.13218 11.43648 24484 ft 427 kts
2026-04-15 08:25 61.16173 11.44212 24850 ft 429 kts
2026-04-15 08:25 61.19175 11.44785 25218 ft 432 kts
2026-04-15 08:25 61.22173 11.45360 25574 ft 434 kts
2026-04-15 08:26 61.25194 11.45940 25920 ft 437 kts
2026-04-15 08:26 61.28225 11.46523 26262 ft 439 kts
2026-04-15 08:26 61.31279 11.47111 26585 ft 441 kts
2026-04-15 08:26 61.34327 11.47911 26891 ft 443 kts 14°
2026-04-15 08:27 61.37223 11.50139 27164 ft 446 kts 28°
2026-04-15 08:27 61.39792 11.53764 27469 ft 447 kts 42°
2026-04-15 08:27 61.41920 11.58503 27785 ft 449 kts 50°
2026-04-15 08:27 61.43937 11.63492 28113 ft 450 kts 50°
2026-04-15 08:28 61.45949 11.68521 28415 ft 452 kts 50°
2026-04-15 08:28 61.47983 11.73575 28676 ft 455 kts 50°
2026-04-15 08:28 61.50039 11.78638 28968 ft 457 kts 50°
2026-04-15 08:28 61.52106 11.83692 29286 ft 458 kts 50°
2026-04-15 08:29 61.54159 11.88696 29645 ft 458 kts 50°
2026-04-15 08:29 61.56230 11.93748 30047 ft 457 kts 50°
2026-04-15 08:29 61.58303 11.98814 30418 ft 457 kts 50°
2026-04-15 08:29 61.60371 12.03883 30729 ft 457 kts 50°
2026-04-15 08:30 61.62432 12.08943 31038 ft 457 kts 50°
2026-04-15 08:30 61.64499 12.14033 31369 ft 456 kts 50°
2026-04-15 08:30 61.66566 12.19093 31676 ft 455 kts 47°
2026-04-15 08:30 61.68847 12.23696 31975 ft 455 kts 38°
2026-04-15 08:31 61.71417 12.27614 32300 ft 454 kts 35°
2026-04-15 08:31 61.74012 12.31347 32620 ft 453 kts 34°
2026-04-15 08:31 61.76638 12.35075 32913 ft 453 kts 34°
2026-04-15 08:31 61.79240 12.38779 33210 ft 452 kts 34°
2026-04-15 08:32 61.81827 12.42494 33499 ft 452 kts 34°
2026-04-15 08:32 61.84452 12.46301 33746 ft 453 kts 34°
2026-04-15 08:32 61.87042 12.50086 34028 ft 452 kts 34°
2026-04-15 08:32 61.89629 12.53888 34320 ft 452 kts 35°
2026-04-15 08:33 61.92211 12.57700 34544 ft 452 kts 35°
2026-04-15 08:33 61.94792 12.61520 34717 ft 453 kts 34°
2026-04-15 08:33 61.97373 12.65351 34906 ft 453 kts 34°
2026-04-15 08:33 61.99913 12.69127 35109 ft 453 kts 34°
2026-04-15 08:34 62.02541 12.73042 35326 ft 453 kts 34°
2026-04-15 08:34 62.07662 12.80693 35406 ft 456 kts 34°
2026-04-15 08:35 62.12863 12.88496 35404 ft 453 kts 34°
2026-04-15 08:35 62.18003 12.96240 35408 ft 451 kts 34°
2026-04-15 08:36 62.23117 13.03977 35418 ft 449 kts 34°
2026-04-15 08:36 62.28210 13.11717 35423 ft 448 kts 34°
2026-04-15 08:37 62.33301 13.19484 35432 ft 449 kts 34°
2026-04-15 08:37 62.38397 13.27292 35432 ft 450 kts 34°
2026-04-15 08:38 62.43508 13.35157 35440 ft 452 kts 35°
2026-04-15 08:38 62.48641 13.43089 35433 ft 454 kts 35°
2026-04-15 08:39 62.53741 13.51006 35428 ft 456 kts 35°
2026-04-15 08:39 62.58915 13.59071 35428 ft 458 kts 35°
2026-04-15 08:40 62.64075 13.67152 35427 ft 459 kts 35°
2026-04-15 08:40 62.69251 13.75292 35428 ft 459 kts 35°
2026-04-15 08:41 62.74424 13.83464 35429 ft 459 kts 35°
2026-04-15 08:41 62.79582 13.91648 35427 ft 458 kts 35°
2026-04-15 08:42 62.84736 13.99860 35424 ft 457 kts 35°
2026-04-15 08:42 62.89005 14.06692 35423 ft 457 kts 35°
2026-04-15 08:43 62.94036 14.14775 35422 ft 456 kts 35°
2026-04-15 08:43 62.99182 14.23079 35412 ft 455 kts 35°
2026-04-15 08:44 63.04269 14.31325 35407 ft 454 kts 35°
2026-04-15 08:44 63.09345 14.39588 35405 ft 453 kts 35°
2026-04-15 08:45 63.14363 14.47795 35407 ft 453 kts 36°
2026-04-15 08:45 63.19467 14.56178 35399 ft 453 kts 36°
2026-04-15 08:46 63.24523 14.64520 35409 ft 453 kts 36°
2026-04-15 08:46 63.29545 14.72842 35407 ft 453 kts 36°
2026-04-15 08:47 63.34600 14.81258 35416 ft 454 kts 36°
2026-04-15 08:47 63.39652 14.89707 35424 ft 454 kts 36°
2026-04-15 08:48 63.44702 14.98189 35431 ft 454 kts 36°
2026-04-15 08:48 63.49749 15.06705 35435 ft 454 kts 36°
2026-04-15 08:49 63.54793 15.15255 35439 ft 455 kts 36°
2026-04-15 08:49 63.59829 15.23831 35437 ft 454 kts 36°
2026-04-15 08:50 63.64857 15.32432 35442 ft 454 kts 36°
2026-04-15 08:50 63.69890 15.41081 35439 ft 454 kts 36°
2026-04-15 08:51 63.74918 15.49761 35441 ft 454 kts 36°
2026-04-15 08:51 63.79894 15.58391 35437 ft 454 kts 36°
2026-04-15 08:52 63.84899 15.67110 35449 ft 453 kts 36°
2026-04-15 08:52 63.89897 15.75858 35446 ft 453 kts 36°
2026-04-15 08:53 63.94871 15.84604 35443 ft 453 kts 36°
2026-04-15 08:53 63.99854 15.93407 35445 ft 453 kts 36°
2026-04-15 08:54 64.04847 16.02267 35445 ft 453 kts 36°
2026-04-15 08:54 64.09819 16.11132 35447 ft 453 kts 37°
2026-04-15 08:55 64.14784 16.20027 35437 ft 453 kts 37°
2026-04-15 08:55 64.19742 16.28950 35448 ft 453 kts 37°
2026-04-15 08:56 64.24648 16.37820 35446 ft 453 kts 37°
2026-04-15 08:56 64.29644 16.46896 35445 ft 453 kts 37°
2026-04-15 08:57 64.34591 16.55925 35437 ft 454 kts 37°
2026-04-15 08:57 64.39535 16.64994 35422 ft 454 kts 37°
2026-04-15 08:58 64.44357 16.73878 35415 ft 453 kts 37°
2026-04-15 08:58 64.51715 16.87515 35407 ft 453 kts 37°
2026-04-15 08:59 64.56643 16.96702 35404 ft 454 kts 37°
2026-04-15 08:59 64.61561 17.05914 35401 ft 454 kts 37°
2026-04-15 09:00 64.66476 17.15167 35416 ft 454 kts 37°
2026-04-15 09:00 64.71393 17.24466 35427 ft 455 kts 38°
2026-04-15 09:01 64.76310 17.33812 35437 ft 455 kts 38°
2026-04-15 09:01 64.81225 17.43198 35452 ft 456 kts 38°
2026-04-15 09:02 64.86135 17.52621 35451 ft 456 kts 38°
2026-04-15 09:02 64.91048 17.62094 35448 ft 456 kts 38°
2026-04-15 09:03 64.95922 17.71534 35450 ft 456 kts 38°
2026-04-15 09:03 65.00909 17.80824 35449 ft 456 kts 36°
2026-04-15 09:04 65.05940 17.89991 35461 ft 456 kts 36°
2026-04-15 09:04 65.10959 17.99208 35457 ft 457 kts 37°
2026-04-15 09:05 65.15969 18.08503 35453 ft 457 kts 37°
2026-04-15 09:05 65.20972 18.17853 35443 ft 457 kts 37°
2026-04-15 09:06 65.25966 18.27236 35443 ft 457 kts 37°
2026-04-15 09:06 65.30959 18.36663 35442 ft 457 kts 37°
2026-04-15 09:07 65.35945 18.46122 35441 ft 457 kts 37°
2026-04-15 09:07 65.40928 18.55610 35436 ft 457 kts 37°
2026-04-15 09:08 65.45876 18.65068 35429 ft 457 kts 37°
2026-04-15 09:08 65.50843 18.74627 35417 ft 457 kts 37°
2026-04-15 09:09 65.55808 18.84238 35421 ft 458 kts 37°
2026-04-15 09:09 65.60770 18.93891 35407 ft 458 kts 38°
2026-04-15 09:10 65.65727 19.03584 35404 ft 458 kts 38°
2026-04-15 09:10 65.70682 19.13320 35406 ft 459 kts 38°
2026-04-15 09:11 65.75633 19.23099 35409 ft 459 kts 38°
2026-04-15 09:11 65.80588 19.32934 35418 ft 460 kts 38°
2026-04-15 09:12 65.85541 19.42817 35422 ft 460 kts 38°
2026-04-15 09:12 65.90497 19.52759 35424 ft 461 kts 38°
2026-04-15 09:13 65.95456 19.62755 35414 ft 462 kts 38°
2026-04-15 09:13 66.00417 19.72808 35412 ft 463 kts 38°
2026-04-15 09:14 66.05374 19.82908 35416 ft 463 kts 38°
2026-04-15 09:14 66.10330 19.93056 35417 ft 464 kts 39°
2026-04-15 09:15 66.15288 20.03264 35425 ft 464 kts 39°
2026-04-15 09:15 66.20241 20.13513 35429 ft 464 kts 39°
2026-04-15 09:16 66.25157 20.23742 35429 ft 465 kts 39°
2026-04-15 09:16 66.30052 20.33979 35429 ft 465 kts 39°
2026-04-15 09:17 66.35001 20.44385 35426 ft 466 kts 39°
2026-04-15 09:17 66.39946 20.54840 35422 ft 466 kts 39°
2026-04-15 09:18 66.44889 20.65345 35425 ft 466 kts 39°
2026-04-15 09:18 66.49830 20.75903 35425 ft 467 kts 40°
2026-04-15 09:19 66.54769 20.86513 35420 ft 467 kts 40°
2026-04-15 09:19 66.59702 20.97170 35420 ft 468 kts 40°
2026-04-15 09:20 66.64638 21.07891 35424 ft 468 kts 40°
2026-04-15 09:20 66.69539 21.18592 35427 ft 469 kts 40°
2026-04-15 09:21 66.74467 21.29414 35422 ft 469 kts 40°
2026-04-15 09:21 66.79400 21.40307 35426 ft 470 kts 40°
2026-04-15 09:22 66.84317 21.51223 35422 ft 470 kts 41°
2026-04-15 09:22 66.89234 21.62203 35427 ft 471 kts 41°
2026-04-15 09:23 66.94152 21.73245 35428 ft 471 kts 41°
2026-04-15 09:23 66.99065 21.84337 35429 ft 472 kts 41°
2026-04-15 09:24 67.03978 21.95495 35429 ft 472 kts 41°
2026-04-15 09:24 67.08852 22.06626 35428 ft 473 kts 41°
2026-04-15 09:25 67.13759 22.17900 35427 ft 473 kts 42°
2026-04-15 09:25 67.18661 22.29223 35424 ft 474 kts 42°
2026-04-15 09:26 67.23564 22.40601 35421 ft 474 kts 42°
2026-04-15 09:26 67.28468 22.52047 35410 ft 475 kts 42°
2026-04-15 09:27 67.33364 22.63550 35411 ft 475 kts 43°
2026-04-15 09:27 67.38258 22.75119 35414 ft 476 kts 43°
2026-04-15 09:28 67.43153 22.86757 35410 ft 476 kts 43°
2026-04-15 09:28 67.48033 22.98428 35420 ft 477 kts 43°
2026-04-15 09:29 67.52920 23.10186 35422 ft 478 kts 43°
2026-04-15 09:29 67.57798 23.21992 35430 ft 478 kts 43°
2026-04-15 09:30 67.62675 23.33867 35434 ft 478 kts 44°
2026-04-15 09:30 67.67543 23.45786 35428 ft 479 kts 44°
2026-04-15 09:31 67.71539 23.55842 35435 ft 479 kts 46°
2026-04-15 09:31 67.76204 23.68414 35441 ft 479 kts 47°
2026-04-15 09:32 67.80837 23.81087 35439 ft 479 kts 47°
2026-04-15 09:32 67.85483 23.93767 35441 ft 480 kts 47°
2026-04-15 09:33 67.90136 24.06487 35440 ft 480 kts 47°
2026-04-15 09:33 67.94740 24.19139 35454 ft 480 kts 47°
2026-04-15 09:34 67.99371 24.31949 35449 ft 480 kts 47°
2026-04-15 09:34 68.03998 24.44833 35457 ft 480 kts 48°
2026-04-15 09:35 68.08610 24.57758 35458 ft 481 kts 48°
2026-04-15 09:35 68.13219 24.70747 35461 ft 481 kts 48°
2026-04-15 09:36 68.17823 24.83799 35456 ft 481 kts 48°
2026-04-15 09:36 68.22288 24.96519 35458 ft 481 kts 49°
2026-04-15 09:37 68.26823 25.09524 35462 ft 482 kts 49°
2026-04-15 09:37 68.31403 25.22749 35463 ft 482 kts 49°
2026-04-15 09:38 68.35975 25.36040 35463 ft 482 kts 49°
2026-04-15 09:38 68.40532 25.49371 35461 ft 482 kts 49°
2026-04-15 09:39 68.45089 25.62789 35465 ft 482 kts 49°
2026-04-15 09:39 68.49629 25.76240 35467 ft 482 kts 50°
2026-04-15 09:40 68.54174 25.89795 35041 ft 489 kts 50°
2026-04-15 09:40 68.56473 25.96684 34450 ft 489 kts 50°
2026-04-15 09:40 68.58763 26.03569 33705 ft 490 kts 51°
2026-04-15 09:41 68.61038 26.10432 33011 ft 489 kts 51°
2026-04-15 09:41 68.63334 26.17378 32317 ft 489 kts 52°
2026-04-15 09:41 68.65571 26.24164 31892 ft 483 kts 52°
2026-04-15 09:41 68.67812 26.30984 31394 ft 479 kts 52°
2026-04-15 09:42 68.70031 26.37759 30909 ft 474 kts 52°
2026-04-15 09:42 68.72223 26.44474 30431 ft 470 kts 53°
2026-04-15 09:42 68.74398 26.51162 29902 ft 466 kts 53°
2026-04-15 09:42 68.76534 26.57748 29432 ft 460 kts 53°
2026-04-15 09:43 68.78659 26.64324 28969 ft 455 kts 53°
2026-04-15 09:43 68.80753 26.70823 28499 ft 450 kts 53°
2026-04-15 09:43 68.82820 26.77256 28041 ft 446 kts 53°
2026-04-15 09:43 68.84866 26.83649 27591 ft 441 kts 53°
2026-04-15 09:44 68.86893 26.90001 27122 ft 439 kts 53°
2026-04-15 09:44 68.88905 26.96322 26685 ft 434 kts 53°
2026-04-15 09:44 68.90900 27.02612 26243 ft 435 kts 53°
2026-04-15 09:44 68.92898 27.08936 25801 ft 437 kts 53°
2026-04-15 09:45 68.94900 27.15290 25343 ft 435 kts 53°
2026-04-15 09:45 68.95191 27.16214 25260 ft 435 kts 53°
2026-04-15 09:45 68.97175 27.22537 24835 ft 432 kts 53°
2026-04-15 09:45 68.99137 27.28808 24397 ft 429 kts 53°
2026-04-15 09:46 69.01080 27.35033 23946 ft 427 kts 53°
2026-04-15 09:46 69.03036 27.41313 23429 ft 424 kts 53°
2026-04-15 09:46 69.04959 27.47503 22988 ft 420 kts 53°
2026-04-15 09:46 69.06837 27.53562 22553 ft 416 kts 53°
2026-04-15 09:47 69.08691 27.59561 22137 ft 412 kts 53°
2026-04-15 09:47 69.10580 27.65682 21893 ft 395 kts 53°
2026-04-15 09:47 69.12353 27.71449 21303 ft 393 kts 53°
2026-04-15 09:47 69.14117 27.77204 20896 ft 389 kts 53°
2026-04-15 09:48 69.15888 27.83017 20488 ft 396 kts 53°
2026-04-15 09:48 69.17656 27.88997 20247 ft 400 kts 54°
2026-04-15 09:48 69.19413 27.95082 20006 ft 402 kts 54°
2026-04-15 09:48 69.21164 28.01192 19746 ft 399 kts 55°
2026-04-15 09:49 69.22897 28.07257 19494 ft 396 kts 54°
2026-04-15 09:49 69.24618 28.13288 19255 ft 394 kts 54°
2026-04-15 09:49 69.26331 28.19293 19122 ft 391 kts 54°
2026-04-15 09:49 69.28028 28.25256 19179 ft 391 kts 54°
2026-04-15 09:50 69.29744 28.31300 19189 ft 396 kts 54°
2026-04-15 09:50 69.31466 28.37376 19184 ft 395 kts 54°
2026-04-15 09:50 69.33188 28.43467 18998 ft 397 kts 54°
2026-04-15 09:50 69.34903 28.49545 18750 ft 392 kts 54°
2026-04-15 09:51 69.36588 28.55527 18312 ft 384 kts 54°
2026-04-15 09:51 69.38238 28.61401 17611 ft 380 kts 54°
2026-04-15 09:51 69.39877 28.67263 16887 ft 377 kts 54°
2026-04-15 09:51 69.41495 28.73064 16222 ft 373 kts 54°
2026-04-15 09:52 69.43066 28.78711 15602 ft 368 kts 54°
2026-04-15 09:52 69.44666 28.84478 14997 ft 363 kts 54°
2026-04-15 09:52 69.46177 28.89940 14397 ft 359 kts 54°
2026-04-15 09:52 69.47751 28.95644 13758 ft 355 kts 54°
2026-04-15 09:53 69.49269 29.01162 13063 ft 352 kts 54°
2026-04-15 09:53 69.50768 29.06623 12571 ft 346 kts 53°
2026-04-15 09:53 69.52228 29.11958 12148 ft 346 kts 53°
2026-04-15 09:53 69.53725 29.17437 11742 ft 345 kts 53°
2026-04-15 09:54 69.55197 29.22841 11352 ft 343 kts 53°
2026-04-15 09:54 69.56655 29.28201 11090 ft 338 kts 53°
2026-04-15 09:54 69.58081 29.33460 10952 ft 331 kts 53°
2026-04-15 09:54 69.59473 29.38606 10813 ft 322 kts 53°
2026-04-15 09:55 69.60833 29.43616 10673 ft 315 kts 53°
2026-04-15 09:55 69.62086 29.48603 10530 ft 301 kts 56°
2026-04-15 09:55 69.63247 29.53454 10397 ft 291 kts 56°
2026-04-15 09:55 69.64382 29.58259 10098 ft 290 kts 56°
2026-04-15 09:56 69.65507 29.63061 9841 ft 288 kts 56°
2026-04-15 09:56 69.66618 29.67837 9566 ft 287 kts 56°
2026-04-15 09:56 69.68802 29.77313 9032 ft 286 kts 56°
2026-04-15 09:57 69.69893 29.82089 8768 ft 284 kts 57°
2026-04-15 09:57 69.70967 29.86818 8518 ft 281 kts 57°
2026-04-15 09:57 69.72031 29.91518 8276 ft 279 kts 56°
2026-04-15 09:57 69.73109 29.96309 7624 ft 290 kts 56°
2026-04-15 09:58 69.74192 30.01168 7225 ft 288 kts 57°
2026-04-15 09:58 69.75261 30.06001 6913 ft 283 kts 57°
2026-04-15 09:58 69.76302 30.10741 6608 ft 276 kts 57°
2026-04-15 09:58 69.77341 30.15270 6355 ft 268 kts 50°
2026-04-15 09:59 69.78556 30.19342 6175 ft 265 kts 46°
2026-04-15 09:59 69.79772 30.23338 6040 ft 270 kts 47°
2026-04-15 09:59 69.81040 30.27482 5959 ft 276 kts 47°
2026-04-15 09:59 69.82342 30.31737 5477 ft 285 kts 47°
2026-04-15 10:00 69.83627 30.35937 5518 ft 279 kts 47°
2026-04-15 10:00 69.84926 30.40175 5324 ft 280 kts 47°
2026-04-15 10:00 69.86091 30.44539 5314 ft 271 kts 62°
2026-04-15 10:00 69.86624 30.49674 5293 ft 266 kts 91°
2026-04-15 10:01 69.86232 30.54793 5307 ft 261 kts 122°
2026-04-15 10:01 69.85049 30.58684 5329 ft 258 kts 152°
2026-04-15 10:01 69.83403 30.60394 5284 ft 250 kts 180°
2026-04-15 10:01 69.81744 30.59591 5073 ft 234 kts 210°
2026-04-15 10:02 69.80571 30.56684 4998 ft 214 kts 234°
2026-04-15 10:02 69.79732 30.53265 4722 ft 205 kts 237°
2026-04-15 10:02 69.78933 30.49840 4259 ft 205 kts 237°
2026-04-15 10:02 69.78204 30.46424 4061 ft 191 kts 248°
2026-04-15 10:03 69.78116 30.42686 3799 ft 188 kts 286°
2026-04-15 10:03 69.78794 30.39676 3825 ft 180 kts 304°
2026-04-15 10:03 69.79299 30.36558 3830 ft 167 kts 274°
2026-04-15 10:03 69.79635 30.33317 3791 ft 174 kts 301°
2026-04-15 10:04 69.80457 30.30742 3856 ft 173 kts 307°
2026-04-15 10:04 69.81228 30.28122 3864 ft 169 kts 294°
2026-04-15 10:04 69.81565 30.24952 3915 ft 160 kts 270°
2026-04-15 10:04 69.81335 30.21845 3945 ft 161 kts 240°
2026-04-15 10:05 69.80529 30.19536 3670 ft 166 kts 212°
2026-04-15 10:05 69.79360 30.18736 3143 ft 188 kts 184°
2026-04-15 10:05 69.78072 30.18544 2999 ft 180 kts 192°
2026-04-15 10:05 69.76972 30.17386 2907 ft 155 kts 226°
2026-04-15 10:06 69.76403 30.14699 2357 ft 168 kts 255°
2026-04-15 10:06 69.76180 30.11379 2022 ft 164 kts 250°
2026-04-15 10:06 69.75603 30.08705 1747 ft 153 kts 231°
2026-04-15 10:06 69.74953 30.06302 1398 ft 154 kts 233°
2026-04-15 10:07 69.74384 30.03367 1375 ft 183 kts 255°
2026-04-15 10:07 69.74120 29.99942 2753 ft 168 kts 249°
2026-04-15 10:07 69.73643 29.96552 2947 ft 192 kts 253°
2026-04-15 10:07 69.73657 29.92833 2971 ft 188 kts 289°
2026-04-15 10:08 69.74501 29.89981 2981 ft 195 kts 325°
2026-04-15 10:08 69.75826 29.89245 3006 ft 204 kts
2026-04-15 10:08 69.77164 29.90770 3015 ft 209 kts 25°
2026-04-15 10:08 69.78432 29.92831 3029 ft 211 kts 26°
2026-04-15 10:09 69.79722 29.94957 3029 ft 216 kts 26°
2026-04-15 10:09 69.81028 29.97147 2994 ft 215 kts 26°
2026-04-15 10:09 69.82312 29.99309 2982 ft 212 kts 26°
2026-04-15 10:09 69.83569 30.01430 2977 ft 206 kts 27°
2026-04-15 10:10 69.84750 30.03809 2978 ft 209 kts 47°
2026-04-15 10:10 69.85470 30.07434 3019 ft 208 kts 66°
2026-04-15 10:10 69.86052 30.11297 2975 ft 208 kts 66°
2026-04-15 10:10 69.86610 30.15056 3024 ft 204 kts 67°
2026-04-15 10:11 69.87185 30.18940 2987 ft 208 kts 66°
2026-04-15 10:11 69.87737 30.22735 2975 ft 205 kts 67°
2026-04-15 10:11 69.88277 30.26497 2968 ft 198 kts 72°
2026-04-15 10:11 69.88308 30.30400 3003 ft 196 kts 114°
2026-04-15 10:12 69.87586 30.33692 3015 ft 195 kts 135°
2026-04-15 10:12 69.86692 30.36672 2999 ft 196 kts 136°
2026-04-15 10:12 69.85791 30.39607 2982 ft 193 kts 137°
2026-04-15 10:12 69.84901 30.42487 2978 ft 190 kts 137°
2026-04-15 10:13 69.84020 30.45330 2979 ft 188 kts 137°
2026-04-15 10:13 69.83131 30.48087 2976 ft 185 kts 147°
2026-04-15 10:13 69.81976 30.49091 3028 ft 173 kts 195°
2026-04-15 10:13 69.80928 30.47496 2999 ft 169 kts 227°
2026-04-15 10:14 69.80137 30.45113 2976 ft 159 kts 234°
2026-04-15 10:14 69.79651 30.42330 3034 ft 156 kts 248°
2026-04-15 10:14 69.79233 30.39431 2984 ft 153 kts 247°
2026-04-15 10:14 69.78835 30.36573 3029 ft 155 kts 248°
2026-04-15 10:15 69.78450 30.33693 3029 ft 150 kts 249°
2026-04-15 10:15 69.78091 30.30873 2970 ft 147 kts 250°
2026-04-15 10:15 69.77716 30.28097 2983 ft 148 kts 248°
2026-04-15 10:15 69.77364 30.25439 3034 ft 133 kts 250°
2026-04-15 10:16 69.77061 30.22972 2975 ft 131 kts 249°
2026-04-15 10:16 69.76744 30.20487 2769 ft 130 kts 248°
2026-04-15 10:16 69.76418 30.18118 2593 ft 126 kts 248°
2026-04-15 10:16 69.76103 30.15761 2393 ft 126 kts 250°
2026-04-15 10:17 69.75795 30.13390 2188 ft 122 kts 248°
2026-04-15 10:17 69.75475 30.11029 1966 ft 129 kts 249°
2026-04-15 10:17 69.75262 30.09442 1896 ft 128 kts 249°
2026-04-15 10:17 69.74841 30.06287 1560 ft 127 kts 248°
2026-04-15 10:18 69.74521 30.03890 1396 ft 130 kts 248°
2026-04-15 10:18 69.74187 30.01383 1136 ft 135 kts 247°
2026-04-15 10:18 69.73848 29.98875 921 ft 135 kts 247°
2026-04-15 10:18 69.73624 29.97163 773 ft 136 kts 247°
2026-04-15 10:19 69.73283 29.94642 569 ft 134 kts 246°
2026-04-15 10:19 69.72960 29.92117 354 ft 135 kts 246°
2026-04-15 10:19 69.72641 29.89746 297 ft 109 kts 249°
2026-04-15 10:19 69.72443 29.88249 297 ft 51 kts 249°
2026-04-15 10:20 69.72371 29.87709 297 ft 11 kts 249°
2026-04-15 10:20 69.72360 29.87628 294 ft 4 kts 249°
2026-04-15 10:20 69.72350 29.87551 293 ft 4 kts 249°
2026-04-15 10:20 69.72335 29.87439 293 ft 8 kts 250°
2026-04-15 10:21 69.72329 29.87305 294 ft 3 kts 234°
2026-04-15 10:21 69.72309 29.87316 293 ft 3 kts 129°
2026-04-15 10:21 69.72318 29.87379 293 ft 5 kts 51°
2026-04-15 10:21 69.72340 29.87483 294 ft 7 kts 67°
2026-04-15 10:22 69.72371 29.87709 297 ft 13 kts 69°
2026-04-15 10:22 69.72377 29.87925 295 ft 11 kts 121°
2026-04-15 10:22 69.72309 29.88030 295 ft 11 kts 159°
2026-04-15 10:22 69.72253 29.88162 295 ft 11 kts 100°
2026-04-15 10:23 69.72242 29.88292 295 ft 5 kts 130°
2026-04-15 10:23 69.72227 29.88322 294 ft 0 kts 149°
2026-04-15 10:23 69.72218 29.88331 297 ft 4 kts 157°
2026-04-15 10:23 69.72206 29.88345 295 ft 0 kts 159°